Starlink 4015

operational
NORAD ID: 52616 Int'l Des: 2022-052 Owner: SPXS Country: US Constellation: starlink
LEOCIRCULAR

关于 Starlink 4015

正在加载描述...

实时位置

正在加载3D地球...

即将过境

高度历史

Altitude vs Time

uPlot chart will show altitude changes over time

两行轨道根数

1 52616U 22052U 25297.76154931 -.00000433 00000-0 -90859-5 0 9990
2 52616 53.2205 159.3249 0001543 94.6486 265.4682 15.08833466190470
Epoch: Oct 24, 2025 • Age: 9 hours

当前状态

高度 551.3 km
速度 7.59 km/s
星下点 -34.40°S, 73.77°W
发射日期 May 14, 2022
运行时间 3.4 years
类型 internet

技术详情

分类 Payload
质量 297.00 kg
干质量 275.00 kg
总质量 297.00 kg
长度 0.20 m
直径 2.80 m
跨度 9.00 m
形状 Box + pan
制造商 SPXS
平台类型 Starlink
阶段状态 In Orbit
所有者/国家 SPXS/US

大型星座

Loading constellations...